Location: Carbonear
(47.7333°N, 53.2500°W)
Time: 07:51:19
(UTC+00:00)

STRAND 1 - Visible Passes

Search period start: 04 March 2024 00:00
Search period end: 14 March 2024 00:00
Orbit: 766 x 778 km, 98.4° (Epoch: 03 March)

Date Brightness Start Highest point End Pass type
(mag) Time Alt. Az. Time Alt. Az. Time Alt. Az.
04 Mar ? 08:21:32 10° SE 08:26:20 42° ENE 08:31:09 10° N visible
04 Mar ? 22:06:39 10° NNE 22:11:48 75° ESE 22:16:53 10° S visible
04 Mar ? 23:46:57 10° NNW 23:50:22 18° WNW 23:53:46 10° W visible
05 Mar ? 07:47:53 10° ESE 07:51:51 23° ENE 07:55:48 10° N visible
05 Mar ? 09:25:32 10° S 09:30:36 58° W 09:35:42 10° NNW visible
05 Mar ? 23:11:25 10° N 23:15:57 33° WNW 23:20:27 10° SW visible
06 Mar ? 07:15:19 10° E 07:17:32 13° NE 07:19:44 10° NNE visible
06 Mar ? 08:50:40 10° SSE 08:55:47 73° ENE 09:00:56 10° N visible
06 Mar ? 22:36:16 10° N 22:41:21 62° WNW 22:46:21 10° SSW visible
07 Mar ? 00:18:11 10° NW 00:19:29 11° NW 00:20:47 10° WNW visible
07 Mar ? 08:16:26 10° SE 08:21:09 38° ENE 08:25:52 10° N visible
07 Mar ? 22:01:27 10° NNE 22:06:35 68° ESE 22:11:38 10° S visible
07 Mar ? 23:41:35 10° NNW 23:45:12 20° WNW 23:48:48 10° WSW visible
08 Mar ? 07:42:54 10° ESE 07:46:41 21° ENE 07:50:27 10° NNE visible
08 Mar ? 09:20:16 10° S 09:25:22 64° WSW 09:30:29 10° NNW visible
08 Mar ? 23:06:07 10° N 23:10:45 36° WNW 23:15:21 10° SW visible
09 Mar ? 07:10:39 10° ENE 07:12:23 12° NE 07:14:07 10° NNE visible
09 Mar ? 08:45:29 10° SSE 08:50:34 66° ENE 08:55:41 10° N visible
09 Mar ? 22:31:02 10° N 22:36:08 69° WNW 22:41:10 10° SSW visible
10 Mar ? 00:12:28 10° NNW 00:14:20 12° NW 00:16:12 10° WNW visible
10 Mar ? 08:11:21 10° SE 08:15:57 35° ENE 08:20:34 10° N visible
10 Mar ? 21:56:14 10° NNE 22:01:19 61° ESE 22:06:21 10° S visible
10 Mar ? 23:36:13 10° NNW 23:40:01 22° WNW 23:43:49 10° WSW visible
11 Mar ? 07:37:56 10° ESE 07:41:30 19° ENE 07:45:05 10° NNE visible
11 Mar ? 09:14:59 10° S 09:20:07 71° WSW 09:25:16 10° NNW visible
11 Mar ? 23:00:49 10° N 23:05:32 39° WNW 23:10:14 10° SW visible
12 Mar ? 07:06:10 10° ENE 07:07:14 11° NE 07:08:17 10° NE visible
12 Mar ? 08:40:18 10° SSE 08:45:21 60° ENE 08:50:25 10° N visible
12 Mar ? 22:25:46 10° N 22:30:53 76° WNW 22:35:58 10° SSW visible
13 Mar ? 00:06:53 10° NNW 00:09:10 13° NW 00:11:27 10° W visible
13 Mar ? 08:06:15 10° SE 08:10:45 32° ENE 08:15:15 10° N visible
13 Mar ? 23:30:51 10° N 23:34:50 23° WNW 23:38:48 10° WSW visible
